This demonstration page uses our WeatherBlox Daily Observations layout. Learn more.

Left ArrowRight Arrow

39.08367, -84.50855

Hourly Observations for April 4, 2015

Temp ( °F °C ) Dew Point ( °F °C ) Humidity (%) Winds ( mph kmh ) Pressure ( in mb ) Visibility ( mi km ) Precip ( " mm )
12:53 am 00:53 Mostly Clear 46 7.8 40 4.4 79 79 VRB 6 9 30.08 1019 10 16.0934 0 0
1:53 am 01:53 Mostly Clear 44 6.7 35 1.7 71 71 NNW 10 17 30.11 1020 10 16.0934 0 0
2:53 am 02:53 Cloudy 42 5.6 33 0.6 71 71 NNW 10 17 30.15 1021 10 16.0934 0 0
3:53 am 03:53 Clear 38 3.3 28 -2.2 68 68 NNW 13 20 30.2 1023 10 16.0934 0 0
4:53 am 04:53 Clear 36 2.2 25 -3.9 64 64 undefined N/A 30.23 1024 10 16.0934 0 0
5:53 am 05:53 Clear 36 2.2 24 -4.4 62 62 VRB 5 7 30.26 1025 10 16.0934 0 0
6:53 am 06:53 Clear 34 1.1 25 -3.9 70 70 VRB 3 6 30.29 1026 10 16.0934 0 0
7:53 am 07:53 Sunny 34 1.1 25 -3.9 70 70 VRB 3 6 30.32 1027 10 16.0934 0 0
8:53 am 08:53 Sunny 37 2.8 24 -4.4 59 59 NW 6 9 30.34 1027 10 16.0934 0 0
9:53 am 09:53 Sunny 39 3.9 21 -6.1 48 48 N 9 15 30.36 1028 10 16.0934 0 0
10:53 am 10:53 Sunny 42 5.6 24 -4.4 49 49 VRB 6 9 30.37 1029 10 16.0934 0 0
11:53 am 11:53 Sunny 43 6.1 25 -3.9 49 49 VRB 6 9 30.37 1028 10 16.0934 0 0
12:53 pm 12:53 Sunny 46 7.8 25 -3.9 44 44 WSW 7 11 30.36 1028 10 16.0934 0 0
1:53 pm 13:53 Sunny 47 8.3 27 -2.8 46 46 W 8 13 30.36 1028 10 16.0934 0 0
2:53 pm 14:53 Sunny 50 10 27 -2.8 41 41 VRB 6 9 30.34 1027 10 16.0934 0 0
3:53 pm 15:53 Sunny 51 10.6 27 -2.8 39 39 SW 7 11 30.32 1027 10 16.0934 0 0
4:53 pm 16:53 Sunny 53 11.7 28 -2.2 38 38 WNW 12 19 30.3 1026 10 16.0934 0 0
5:53 pm 17:53 Sunny 54 12.2 28 -2.2 37 37 W 12 19 30.29 1026 10 16.0934 0 0
6:53 pm 18:53 Sunny 53 11.7 27 -2.8 37 37 WSW 9 15 30.29 1026 10 16.0934 0 0
7:53 pm 19:53 Sunny 50 10 26 -3.3 39 39 WSW 8 13 30.27 1025 10 16.0934 0 0
8:53 pm 20:53 Clear 45 7.2 32 0 61 61 SSW 5 7 30.29 1026 10 16.0934 0 0
9:53 pm 21:53 Clear 44 6.7 31 -0.6 60 60 Calm 30.3 1026 10 16.0934 0 0
10:53 pm 22:53 Clear 42 5.6 31 -0.6 65 65 Calm 30.31 1027 10 16.0934 0 0
11:53 pm 23:53 Clear 40 4.4 31 -0.6 70 70 Calm 30.31 1026 10 16.0934 0 0

Powered by AerisWeather